Year,Month,Day,Hour,Minute,Value (Times are PST for windgust in km/hr)
2015,08,31,00,09,1.60
2015,08,31,00,10,3.20
2015,08,31,00,19,1.60
2015,08,31,00,23,1.60
2015,08,31,00,30,1.60
2015,08,31,00,31,1.60
2015,08,31,00,33,1.60
2015,08,31,00,34,1.60
2015,08,31,00,36,1.60
2015,08,31,00,37,3.20
2015,08,31,00,38,4.80
2015,08,31,00,39,4.80
2015,08,31,00,40,1.60
2015,08,31,00,41,3.20
2015,08,31,00,42,1.60
2015,08,31,00,43,3.20
2015,08,31,00,44,1.60
2015,08,31,00,45,1.60
2015,08,31,00,46,1.60
2015,08,31,00,49,1.60
2015,08,31,00,50,1.60
2015,08,31,00,55,3.20
2015,08,31,00,56,1.60
2015,08,31,01,04,1.60
2015,08,31,01,05,1.60
2015,08,31,01,51,1.60
2015,08,31,01,52,1.60
2015,08,31,01,53,1.60
2015,08,31,01,54,1.60
2015,08,31,01,55,1.60
2015,08,31,01,56,3.20
2015,08,31,01,58,1.60
2015,08,31,02,15,1.60
2015,08,31,02,16,1.60
2015,08,31,02,17,1.60
2015,08,31,02,18,1.60
2015,08,31,02,19,1.60
2015,08,31,02,47,1.60
2015,08,31,02,48,1.60
2015,08,31,02,49,1.60
2015,08,31,02,54,1.60
2015,08,31,02,57,1.60
2015,08,31,03,22,1.60
2015,08,31,03,23,1.60
2015,08,31,03,24,1.60
2015,08,31,03,25,1.60
2015,08,31,03,26,1.60
2015,08,31,03,27,4.80
2015,08,31,03,28,4.80
2015,08,31,03,29,1.60
2015,08,31,03,30,4.80
2015,08,31,03,31,4.80
2015,08,31,03,32,1.60
2015,08,31,03,39,1.60
2015,08,31,03,41,1.60
2015,08,31,03,58,1.60
2015,08,31,03,59,1.60
2015,08,31,04,00,1.60
2015,08,31,04,03,1.60
2015,08,31,04,12,1.60
2015,08,31,04,13,3.20
2015,08,31,04,31,3.20
2015,08,31,04,32,1.60
2015,08,31,04,34,1.60
2015,08,31,04,35,1.60
2015,08,31,04,36,3.20
2015,08,31,04,37,1.60
2015,08,31,04,38,3.20
2015,08,31,04,39,1.60
2015,08,31,04,47,1.60
2015,08,31,04,49,1.60
2015,08,31,04,50,1.60
2015,08,31,04,51,3.20
2015,08,31,04,52,3.20
2015,08,31,04,53,3.20
2015,08,31,05,00,1.60
2015,08,31,05,01,1.60
2015,08,31,05,02,1.60
2015,08,31,05,07,1.60
2015,08,31,05,10,1.60
2015,08,31,05,11,1.60
2015,08,31,05,26,1.60
2015,08,31,05,27,1.60
2015,08,31,05,32,3.20
2015,08,31,05,34,1.60
2015,08,31,05,35,1.60
2015,08,31,05,38,1.60
2015,08,31,05,43,1.60
2015,08,31,05,48,1.60
2015,08,31,05,51,1.60
2015,08,31,05,52,3.20
2015,08,31,05,53,1.60
2015,08,31,05,54,1.60
2015,08,31,05,55,4.80
2015,08,31,05,56,3.20
2015,08,31,05,58,1.60
2015,08,31,05,59,1.60
2015,08,31,06,04,1.60
2015,08,31,06,05,3.20
2015,08,31,06,06,3.20
2015,08,31,06,07,6.40
2015,08,31,06,08,1.60
2015,08,31,06,09,3.20
2015,08,31,06,17,1.60
2015,08,31,06,18,3.20
2015,08,31,06,19,3.20
2015,08,31,06,20,3.20
2015,08,31,06,26,3.20
2015,08,31,06,27,1.60
2015,08,31,06,34,1.60
2015,08,31,06,35,1.60
2015,08,31,06,36,1.60
2015,08,31,06,45,1.60
2015,08,31,07,00,3.20
2015,08,31,07,01,4.80
2015,08,31,07,02,1.60
2015,08,31,07,06,4.80
2015,08,31,07,07,1.60
2015,08,31,07,08,1.60
2015,08,31,07,09,3.20
2015,08,31,07,10,3.20
2015,08,31,07,14,1.60
2015,08,31,07,18,1.60
2015,08,31,07,19,1.60
2015,08,31,07,20,4.80
2015,08,31,07,21,4.80
2015,08,31,07,23,4.80
2015,08,31,07,24,4.80
2015,08,31,07,25,6.40
2015,08,31,07,26,6.40
2015,08,31,07,27,6.40
2015,08,31,07,28,4.80
2015,08,31,07,29,1.60
2015,08,31,07,30,3.20
2015,08,31,07,31,1.60
2015,08,31,07,32,4.80
2015,08,31,07,36,1.60
2015,08,31,07,38,4.80
2015,08,31,07,39,1.60
2015,08,31,07,40,6.40
2015,08,31,07,41,3.20
2015,08,31,07,42,1.60
2015,08,31,07,43,8.10
2015,08,31,07,44,8.10
2015,08,31,07,45,6.40
2015,08,31,07,46,4.80
2015,08,31,07,47,4.80
2015,08,31,07,48,11.30
2015,08,31,07,49,3.20
2015,08,31,07,50,1.60
2015,08,31,07,51,8.10
2015,08,31,07,52,8.10
2015,08,31,07,53,3.20
2015,08,31,07,54,1.60
2015,08,31,07,55,1.60
2015,08,31,07,56,4.80
2015,08,31,07,57,3.20
2015,08,31,07,58,4.80
2015,08,31,07,59,4.80
2015,08,31,08,00,9.60
2015,08,31,08,01,8.10
2015,08,31,08,02,6.40
2015,08,31,08,03,1.60
2015,08,31,08,04,9.60
2015,08,31,08,05,4.80
2015,08,31,08,06,8.10
2015,08,31,08,07,8.10
2015,08,31,08,08,3.20
2015,08,31,08,09,6.40
2015,08,31,08,10,4.80
2015,08,31,08,11,1.60
2015,08,31,08,12,4.80
2015,08,31,08,13,6.40
2015,08,31,08,14,3.20
2015,08,31,08,15,3.20
2015,08,31,08,16,1.60
2015,08,31,08,17,3.20
2015,08,31,08,18,3.20
2015,08,31,08,19,3.20
2015,08,31,08,20,1.60
2015,08,31,08,21,1.60
2015,08,31,08,22,1.60
2015,08,31,08,24,3.20
2015,08,31,08,25,4.80
2015,08,31,08,26,6.40
2015,08,31,08,27,9.60
2015,08,31,08,28,8.10
2015,08,31,08,29,4.80
2015,08,31,08,30,3.20
2015,08,31,08,32,3.20
2015,08,31,08,33,8.10
2015,08,31,08,34,6.40
2015,08,31,08,35,3.20
2015,08,31,08,36,8.10
2015,08,31,08,37,6.40
2015,08,31,08,38,4.80
2015,08,31,08,39,3.20
2015,08,31,08,40,4.80
2015,08,31,08,41,1.60
2015,08,31,08,44,3.20
2015,08,31,08,45,3.20
2015,08,31,08,46,4.80
2015,08,31,08,47,3.20
2015,08,31,08,48,4.80
2015,08,31,08,49,3.20
2015,08,31,08,50,3.20
2015,08,31,08,51,3.20
2015,08,31,08,52,1.60
2015,08,31,08,53,1.60
2015,08,31,08,54,1.60
2015,08,31,08,57,1.60
2015,08,31,09,00,1.60
2015,08,31,09,02,1.60
2015,08,31,09,10,1.60
2015,08,31,09,12,4.80
2015,08,31,09,13,3.20
2015,08,31,09,14,1.60
2015,08,31,09,17,1.60
2015,08,31,09,18,1.60
2015,08,31,09,24,3.20
2015,08,31,09,25,3.20
2015,08,31,09,26,1.60
2015,08,31,09,28,1.60
2015,08,31,09,32,1.60
2015,08,31,09,33,3.20
2015,08,31,09,34,3.20
2015,08,31,09,35,4.80
2015,08,31,09,36,6.40
2015,08,31,09,37,6.40
2015,08,31,09,38,3.20
2015,08,31,09,39,3.20
2015,08,31,09,40,3.20
2015,08,31,09,41,4.80
2015,08,31,09,42,1.60
2015,08,31,09,45,1.60
2015,08,31,09,46,4.80
2015,08,31,09,47,3.20
2015,08,31,09,50,1.60
2015,08,31,09,51,6.40
2015,08,31,09,52,3.20
2015,08,31,09,53,3.20
2015,08,31,09,54,3.20
2015,08,31,09,55,1.60
2015,08,31,09,56,3.20
2015,08,31,09,57,4.80
2015,08,31,09,58,3.20
2015,08,31,09,59,3.20
2015,08,31,10,00,3.20
2015,08,31,10,01,1.60
2015,08,31,10,02,1.60
2015,08,31,10,13,1.60
2015,08,31,10,14,1.60
2015,08,31,10,15,1.60
2015,08,31,10,16,1.60
2015,08,31,10,18,6.40
2015,08,31,10,19,4.80
2015,08,31,10,20,1.60
2015,08,31,10,24,1.60
2015,08,31,10,25,1.60
2015,08,31,10,26,1.60
2015,08,31,10,27,1.60
2015,08,31,10,31,1.60
2015,08,31,10,34,1.60
2015,08,31,10,43,1.60
2015,08,31,10,49,3.20
2015,08,31,10,50,3.20
2015,08,31,10,52,3.20
2015,08,31,10,53,4.80
2015,08,31,10,54,3.20
2015,08,31,10,56,1.60
2015,08,31,10,57,3.20
2015,08,31,10,58,3.20
2015,08,31,11,05,1.60
2015,08,31,11,06,1.60
2015,08,31,11,08,4.80
2015,08,31,11,09,1.60
2015,08,31,11,10,1.60
2015,08,31,11,11,1.60
2015,08,31,11,12,1.60
2015,08,31,11,13,1.60
2015,08,31,11,15,1.60
2015,08,31,11,25,4.80
2015,08,31,11,26,6.40
2015,08,31,11,27,1.60
2015,08,31,11,28,4.80
2015,08,31,11,29,4.80
2015,08,31,11,30,1.60
2015,08,31,11,31,3.20
2015,08,31,11,32,1.60
2015,08,31,11,33,1.60
2015,08,31,11,34,6.40
2015,08,31,11,35,3.20
2015,08,31,11,36,3.20
2015,08,31,11,37,4.80
2015,08,31,11,38,6.40
2015,08,31,11,39,8.10
2015,08,31,11,40,6.40
2015,08,31,11,41,4.80
2015,08,31,11,42,9.60
2015,08,31,11,43,6.40
2015,08,31,11,44,6.40
2015,08,31,11,45,8.10
2015,08,31,11,46,11.30
2015,08,31,11,47,16.10
2015,08,31,11,48,9.60
2015,08,31,11,49,6.40
2015,08,31,11,50,8.10
2015,08,31,11,51,14.50
2015,08,31,11,52,8.10
2015,08,31,11,53,8.10
2015,08,31,11,54,14.50
2015,08,31,11,55,4.80
2015,08,31,11,56,8.10
2015,08,31,11,57,4.80
2015,08,31,11,58,9.60
2015,08,31,11,59,19.30
2015,08,31,12,00,16.10
2015,08,31,12,01,16.10
2015,08,31,12,02,16.10
2015,08,31,12,03,14.50
2015,08,31,12,04,8.10
2015,08,31,12,05,6.40
2015,08,31,12,06,9.60
2015,08,31,12,07,8.10
2015,08,31,12,08,9.60
2015,08,31,12,09,14.50
2015,08,31,12,10,9.60
2015,08,31,12,11,16.10
2015,08,31,12,12,9.60
2015,08,31,12,13,9.60
2015,08,31,12,14,14.50
2015,08,31,12,15,17.70
2015,08,31,12,16,17.70
2015,08,31,12,17,20.90
2015,08,31,12,18,19.30
2015,08,31,12,19,17.70
2015,08,31,12,20,11.30
2015,08,31,12,21,4.80
2015,08,31,12,22,8.10
2015,08,31,12,23,11.30
2015,08,31,12,24,4.80
2015,08,31,12,25,11.30
2015,08,31,12,26,25.70
2015,08,31,12,27,16.10
2015,08,31,12,28,17.70
2015,08,31,12,29,17.70
2015,08,31,12,30,12.90
2015,08,31,12,31,11.30
2015,08,31,12,32,14.50
2015,08,31,12,33,17.70
2015,08,31,12,34,8.10
2015,08,31,12,35,9.60
2015,08,31,12,36,11.30
2015,08,31,12,37,8.10
2015,08,31,12,38,8.10
2015,08,31,12,39,11.30
2015,08,31,12,40,12.90
2015,08,31,12,41,12.90
2015,08,31,12,42,11.30
2015,08,31,12,43,8.10
2015,08,31,12,44,17.70
2015,08,31,12,45,20.90
2015,08,31,12,46,11.30
2015,08,31,12,47,16.10
2015,08,31,12,48,9.60
2015,08,31,12,49,11.30
2015,08,31,12,50,14.50
2015,08,31,12,51,19.30
2015,08,31,12,52,17.70
2015,08,31,12,53,6.40
2015,08,31,12,54,6.40
2015,08,31,12,55,6.40
2015,08,31,12,56,6.40
2015,08,31,12,57,11.30
2015,08,31,12,58,16.10
2015,08,31,12,59,14.50
2015,08,31,13,00,9.60
2015,08,31,13,01,9.60
2015,08,31,13,02,14.50
2015,08,31,13,03,19.30
2015,08,31,13,04,16.10
2015,08,31,13,05,4.80
2015,08,31,13,06,11.30
2015,08,31,13,07,11.30
2015,08,31,13,08,6.40
2015,08,31,13,09,9.60
2015,08,31,13,10,6.40
2015,08,31,13,11,19.30
2015,08,31,13,12,24.20
2015,08,31,13,13,20.90
2015,08,31,13,14,17.70
2015,08,31,13,15,16.10
2015,08,31,13,16,22.50
2015,08,31,13,17,16.10
2015,08,31,13,18,19.30
2015,08,31,13,19,17.70
2015,08,31,13,20,11.30
2015,08,31,13,21,11.30
2015,08,31,13,22,22.50
2015,08,31,13,23,11.30
2015,08,31,13,24,8.10
2015,08,31,13,25,16.10
2015,08,31,13,26,17.70
2015,08,31,13,27,17.70
2015,08,31,13,28,8.10
2015,08,31,13,29,19.30
2015,08,31,13,30,16.10
2015,08,31,13,31,19.30
2015,08,31,13,32,19.30
2015,08,31,13,33,17.70
2015,08,31,13,34,24.20
2015,08,31,13,35,22.50
2015,08,31,13,36,29.00
2015,08,31,13,37,20.90
2015,08,31,13,38,27.40
2015,08,31,13,39,30.60
2015,08,31,13,40,20.90
2015,08,31,13,41,22.50
2015,08,31,13,42,27.40
2015,08,31,13,43,17.70
2015,08,31,13,44,25.70
2015,08,31,13,45,17.70
2015,08,31,13,46,16.10
2015,08,31,13,47,32.20
2015,08,31,13,48,22.50
2015,08,31,13,49,29.00
2015,08,31,13,50,22.50
2015,08,31,13,51,33.80
2015,08,31,13,52,37.00
2015,08,31,13,53,16.10
2015,08,31,13,54,14.50
2015,08,31,13,55,9.60
2015,08,31,13,56,16.10
2015,08,31,13,57,24.20
2015,08,31,13,58,19.30
2015,08,31,13,59,14.50
2015,08,31,14,00,16.10
2015,08,31,14,01,22.50
2015,08,31,14,02,11.30
2015,08,31,14,03,16.10
2015,08,31,14,04,19.30
2015,08,31,14,05,20.90
2015,08,31,14,06,25.70
2015,08,31,14,07,24.20
2015,08,31,14,08,30.60
2015,08,31,14,09,14.50
2015,08,31,14,10,19.30
2015,08,31,14,11,40.20
2015,08,31,14,12,41.80
2015,08,31,14,13,29.00
2015,08,31,14,14,24.20
2015,08,31,14,15,32.20
2015,08,31,14,16,14.50
2015,08,31,14,17,32.20
2015,08,31,14,18,33.80
2015,08,31,14,19,25.70
2015,08,31,14,20,20.90
2015,08,31,14,21,22.50
2015,08,31,14,22,27.40
2015,08,31,14,23,37.00
2015,08,31,14,24,22.50
2015,08,31,14,25,29.00
2015,08,31,14,26,24.20
2015,08,31,14,27,19.30
2015,08,31,14,28,17.70
2015,08,31,14,29,16.10
2015,08,31,14,30,35.40
2015,08,31,14,31,20.90
2015,08,31,14,32,11.30
2015,08,31,14,33,29.00
2015,08,31,14,34,25.70
2015,08,31,14,35,19.30
2015,08,31,14,36,24.20
2015,08,31,14,37,11.30
2015,08,31,14,38,9.60
2015,08,31,14,39,22.50
2015,08,31,14,40,17.70
2015,08,31,14,41,25.70
2015,08,31,14,42,25.70
2015,08,31,14,43,17.70
2015,08,31,14,44,20.90
2015,08,31,14,45,20.90
2015,08,31,14,46,32.20
2015,08,31,14,47,27.40
2015,08,31,14,48,19.30
2015,08,31,14,49,30.60
2015,08,31,14,50,27.40
2015,08,31,14,51,29.00
2015,08,31,14,52,20.90
2015,08,31,14,53,20.90
2015,08,31,14,54,20.90
2015,08,31,14,55,19.30
2015,08,31,14,56,19.30
2015,08,31,14,57,16.10
2015,08,31,14,58,14.50
2015,08,31,14,59,11.30
2015,08,31,15,00,19.30
2015,08,31,15,01,19.30
2015,08,31,15,02,14.50
2015,08,31,15,03,6.40
2015,08,31,15,04,6.40
2015,08,31,15,05,20.90
2015,08,31,15,06,14.50
2015,08,31,15,07,6.40
2015,08,31,15,08,11.30
2015,08,31,15,09,19.30
2015,08,31,15,10,22.50
2015,08,31,15,11,16.10
2015,08,31,15,12,19.30
2015,08,31,15,13,20.90
2015,08,31,15,14,24.20
2015,08,31,15,15,24.20
2015,08,31,15,16,29.00
2015,08,31,15,17,29.00
2015,08,31,15,18,11.30
2015,08,31,15,19,29.00
2015,08,31,15,20,19.30
2015,08,31,15,21,17.70
2015,08,31,15,22,17.70
2015,08,31,15,23,24.20
2015,08,31,15,24,24.20
2015,08,31,15,25,20.90
2015,08,31,15,26,12.90
2015,08,31,15,27,11.30
2015,08,31,15,28,19.30
2015,08,31,15,29,16.10
2015,08,31,15,30,16.10
2015,08,31,15,31,25.70
2015,08,31,15,32,9.60
2015,08,31,15,33,11.30
2015,08,31,15,34,16.10
2015,08,31,15,35,17.70
2015,08,31,15,36,8.10
2015,08,31,15,37,16.10
2015,08,31,15,38,14.50
2015,08,31,15,39,11.30
2015,08,31,15,40,16.10
2015,08,31,15,41,12.90
2015,08,31,15,42,25.70
2015,08,31,15,43,32.20
2015,08,31,15,44,17.70
2015,08,31,15,45,19.30
2015,08,31,15,46,19.30
2015,08,31,15,47,22.50
2015,08,31,15,48,14.50
2015,08,31,15,49,11.30
2015,08,31,15,50,20.90
2015,08,31,15,51,20.90
2015,08,31,15,52,14.50
2015,08,31,15,53,6.40
2015,08,31,15,54,6.40
2015,08,31,15,55,3.20
2015,08,31,15,56,4.80
2015,08,31,15,57,17.70
2015,08,31,15,58,17.70
2015,08,31,15,59,6.40
2015,08,31,16,00,3.20
2015,08,31,16,01,22.50
2015,08,31,16,02,11.30
2015,08,31,16,03,14.50
2015,08,31,16,04,20.90
2015,08,31,16,05,24.20
2015,08,31,16,06,17.70
2015,08,31,16,07,20.90
2015,08,31,16,08,16.10
2015,08,31,16,09,16.10
2015,08,31,16,10,12.90
2015,08,31,16,11,27.40
2015,08,31,16,12,11.30
2015,08,31,16,13,20.90
2015,08,31,16,14,20.90
2015,08,31,16,15,11.30
2015,08,31,16,16,11.30
2015,08,31,16,17,17.70
2015,08,31,16,18,16.10
2015,08,31,16,19,22.50
2015,08,31,16,20,14.50
2015,08,31,16,21,22.50
2015,08,31,16,22,22.50
2015,08,31,16,23,24.20
2015,08,31,16,24,14.50
2015,08,31,16,25,14.50
2015,08,31,16,26,25.70
2015,08,31,16,27,19.30
2015,08,31,16,28,25.70
2015,08,31,16,29,35.40
2015,08,31,16,30,25.70
2015,08,31,16,31,27.40
2015,08,31,16,32,14.50
2015,08,31,16,33,19.30
2015,08,31,16,34,12.90
2015,08,31,16,35,17.70
2015,08,31,16,36,20.90
2015,08,31,16,37,25.70
2015,08,31,16,38,19.30
2015,08,31,16,39,22.50
2015,08,31,16,40,17.70
2015,08,31,16,41,8.10
2015,08,31,16,42,9.60
2015,08,31,16,43,6.40
2015,08,31,16,44,14.50
2015,08,31,16,45,12.90
2015,08,31,16,46,19.30
2015,08,31,16,47,17.70
2015,08,31,16,48,25.70
2015,08,31,16,49,11.30
2015,08,31,16,50,27.40
2015,08,31,16,51,33.80
2015,08,31,16,52,17.70
2015,08,31,16,53,14.50
2015,08,31,16,54,19.30
2015,08,31,16,55,22.50
2015,08,31,16,56,16.10
2015,08,31,16,57,19.30
2015,08,31,16,58,16.10
2015,08,31,16,59,16.10
2015,08,31,17,00,17.70
2015,08,31,17,01,8.10
2015,08,31,17,02,19.30
2015,08,31,17,03,17.70
2015,08,31,17,04,9.60
2015,08,31,17,05,8.10
2015,08,31,17,06,25.70
2015,08,31,17,07,25.70
2015,08,31,17,08,17.70
2015,08,31,17,09,11.30
2015,08,31,17,10,20.90
2015,08,31,17,11,33.80
2015,08,31,17,12,24.20
2015,08,31,17,13,8.10
2015,08,31,17,14,20.90
2015,08,31,17,15,27.40
2015,08,31,17,16,20.90
2015,08,31,17,17,9.60
2015,08,31,17,18,17.70
2015,08,31,17,19,6.40
2015,08,31,17,20,12.90
2015,08,31,17,21,22.50
2015,08,31,17,22,4.80
2015,08,31,17,23,20.90
2015,08,31,17,24,27.40
2015,08,31,17,25,22.50
2015,08,31,17,26,20.90
2015,08,31,17,27,11.30
2015,08,31,17,28,14.50
2015,08,31,17,29,25.70
2015,08,31,17,30,9.60
2015,08,31,17,31,24.20
2015,08,31,17,32,20.90
2015,08,31,17,33,14.50
2015,08,31,17,34,20.90
2015,08,31,17,35,25.70
2015,08,31,17,36,20.90
2015,08,31,17,37,14.50
2015,08,31,17,38,9.60
2015,08,31,17,39,30.60
2015,08,31,17,40,19.30
2015,08,31,17,41,16.10
2015,08,31,17,42,20.90
2015,08,31,17,43,19.30
2015,08,31,17,44,17.70
2015,08,31,17,45,19.30
2015,08,31,17,46,12.90
2015,08,31,17,47,16.10
2015,08,31,17,48,19.30
2015,08,31,17,49,16.10
2015,08,31,17,50,14.50
2015,08,31,17,51,19.30
2015,08,31,17,52,9.60
2015,08,31,17,53,16.10
2015,08,31,17,54,22.50
2015,08,31,17,55,14.50
2015,08,31,17,56,17.70
2015,08,31,17,57,16.10
2015,08,31,17,58,17.70
2015,08,31,17,59,16.10
2015,08,31,18,00,9.60
2015,08,31,18,01,11.30
2015,08,31,18,02,19.30
2015,08,31,18,03,14.50
2015,08,31,18,04,14.50
2015,08,31,18,05,16.10
2015,08,31,18,06,19.30
2015,08,31,18,07,14.50
2015,08,31,18,08,11.30
2015,08,31,18,09,9.60
2015,08,31,18,10,11.30
2015,08,31,18,11,11.30
2015,08,31,18,12,9.60
2015,08,31,18,13,6.40
2015,08,31,18,14,11.30
2015,08,31,18,15,12.90
2015,08,31,18,16,17.70
2015,08,31,18,17,11.30
2015,08,31,18,18,14.50
2015,08,31,18,19,14.50
2015,08,31,18,20,17.70
2015,08,31,18,21,9.60
2015,08,31,18,22,22.50
2015,08,31,18,23,8.10
2015,08,31,18,24,17.70
2015,08,31,18,25,16.10
2015,08,31,18,26,17.70
2015,08,31,18,27,11.30
2015,08,31,18,28,22.50
2015,08,31,18,29,19.30
2015,08,31,18,30,6.40
2015,08,31,18,31,14.50
2015,08,31,18,32,17.70
2015,08,31,18,33,6.40
2015,08,31,18,34,11.30
2015,08,31,18,35,11.30
2015,08,31,18,36,9.60
2015,08,31,18,37,6.40
2015,08,31,18,38,11.30
2015,08,31,18,39,12.90
2015,08,31,18,40,8.10
2015,08,31,18,41,9.60
2015,08,31,18,42,11.30
2015,08,31,18,43,16.10
2015,08,31,18,44,8.10
2015,08,31,18,45,6.40
2015,08,31,18,46,4.80
2015,08,31,18,47,16.10
2015,08,31,18,48,16.10
2015,08,31,18,49,6.40
2015,08,31,18,50,9.60
2015,08,31,18,51,9.60
2015,08,31,18,52,16.10
2015,08,31,18,53,16.10
2015,08,31,18,54,17.70
2015,08,31,18,55,14.50
2015,08,31,18,56,12.90
2015,08,31,18,57,22.50
2015,08,31,18,58,16.10
2015,08,31,18,59,6.40
2015,08,31,19,00,17.70
2015,08,31,19,01,30.60
2015,08,31,19,02,14.50
2015,08,31,19,03,9.60
2015,08,31,19,04,14.50
2015,08,31,19,05,9.60
2015,08,31,19,06,11.30
2015,08,31,19,07,17.70
2015,08,31,19,08,25.70
2015,08,31,19,09,16.10
2015,08,31,19,10,16.10
2015,08,31,19,11,9.60
2015,08,31,19,12,16.10
2015,08,31,19,13,16.10
2015,08,31,19,14,17.70
2015,08,31,19,15,22.50
2015,08,31,19,16,25.70
2015,08,31,19,17,16.10
2015,08,31,19,18,22.50
2015,08,31,19,19,17.70
2015,08,31,19,20,11.30
2015,08,31,19,21,17.70
2015,08,31,19,22,6.40
2015,08,31,19,23,4.80
2015,08,31,19,24,11.30
2015,08,31,19,25,14.50
2015,08,31,19,26,11.30
2015,08,31,19,27,14.50
2015,08,31,19,28,14.50
2015,08,31,19,29,22.50
2015,08,31,19,30,20.90
2015,08,31,19,31,11.30
2015,08,31,19,32,22.50
2015,08,31,19,33,12.90
2015,08,31,19,34,22.50
2015,08,31,19,35,17.70
2015,08,31,19,36,17.70
2015,08,31,19,37,14.50
2015,08,31,19,38,16.10
2015,08,31,19,39,20.90
2015,08,31,19,40,20.90
2015,08,31,19,41,11.30
2015,08,31,19,42,14.50
2015,08,31,19,43,17.70
2015,08,31,19,44,14.50
2015,08,31,19,45,11.30
2015,08,31,19,46,11.30
2015,08,31,19,47,8.10
2015,08,31,19,48,4.80
2015,08,31,19,49,11.30
2015,08,31,19,50,17.70
2015,08,31,19,51,19.30
2015,08,31,19,52,14.50
2015,08,31,19,53,8.10
2015,08,31,19,54,8.10
2015,08,31,19,55,6.40
2015,08,31,19,56,14.50
2015,08,31,19,57,6.40
2015,08,31,19,58,3.20
2015,08,31,19,59,14.50
2015,08,31,20,00,16.10
2015,08,31,20,01,14.50
2015,08,31,20,02,8.10
2015,08,31,20,03,4.80
2015,08,31,20,04,4.80
2015,08,31,20,05,11.30
2015,08,31,20,06,4.80
2015,08,31,20,07,8.10
2015,08,31,20,08,6.40
2015,08,31,20,09,9.60
2015,08,31,20,10,8.10
2015,08,31,20,11,3.20
2015,08,31,20,12,1.60
2015,08,31,20,13,3.20
2015,08,31,20,14,8.10
2015,08,31,20,15,3.20
2015,08,31,20,16,4.80
2015,08,31,20,17,4.80
2015,08,31,20,18,3.20
2015,08,31,20,19,8.10
2015,08,31,20,20,9.60
2015,08,31,20,21,11.30
2015,08,31,20,22,8.10
2015,08,31,20,23,8.10
2015,08,31,20,24,6.40
2015,08,31,20,25,8.10
2015,08,31,20,26,9.60
2015,08,31,20,27,14.50
2015,08,31,20,28,8.10
2015,08,31,20,29,6.40
2015,08,31,20,30,6.40
2015,08,31,20,31,11.30
2015,08,31,20,32,14.50
2015,08,31,20,33,8.10
2015,08,31,20,34,9.60
2015,08,31,20,35,11.30
2015,08,31,20,36,4.80
2015,08,31,20,37,6.40
2015,08,31,20,38,8.10
2015,08,31,20,39,6.40
2015,08,31,20,40,4.80
2015,08,31,20,41,4.80
2015,08,31,20,42,3.20
2015,08,31,20,43,1.60
2015,08,31,20,44,4.80
2015,08,31,20,45,6.40
2015,08,31,20,46,6.40
2015,08,31,20,47,6.40
2015,08,31,20,48,9.60
2015,08,31,20,49,11.30
2015,08,31,20,50,4.80
2015,08,31,20,51,6.40
2015,08,31,20,52,17.70
2015,08,31,20,53,9.60
2015,08,31,20,54,16.10
2015,08,31,20,55,4.80
2015,08,31,20,56,6.40
2015,08,31,20,57,8.10
2015,08,31,20,58,16.10
2015,08,31,20,59,12.90
2015,08,31,21,00,9.60
2015,08,31,21,01,11.30
2015,08,31,21,02,14.50
2015,08,31,21,03,4.80
2015,08,31,21,04,3.20
2015,08,31,21,05,4.80
2015,08,31,21,06,3.20
2015,08,31,21,07,3.20
2015,08,31,21,08,4.80
2015,08,31,21,09,3.20
2015,08,31,21,10,6.40
2015,08,31,21,11,3.20
2015,08,31,21,12,4.80
2015,08,31,21,13,1.60
2015,08,31,21,15,3.20
2015,08,31,21,16,4.80
2015,08,31,21,17,4.80
2015,08,31,21,18,1.60
2015,08,31,21,19,3.20
2015,08,31,21,20,4.80
2015,08,31,21,21,4.80
2015,08,31,21,22,4.80
2015,08,31,21,23,6.40
2015,08,31,21,24,3.20
2015,08,31,21,25,6.40
2015,08,31,21,26,1.60
2015,08,31,21,27,6.40
2015,08,31,21,28,3.20
2015,08,31,21,29,6.40
2015,08,31,21,30,3.20
2015,08,31,21,31,4.80
2015,08,31,21,32,3.20
2015,08,31,21,33,1.60
2015,08,31,21,34,4.80
2015,08,31,21,35,6.40
2015,08,31,21,36,6.40
2015,08,31,21,37,4.80
2015,08,31,21,38,8.10
2015,08,31,21,39,6.40
2015,08,31,21,40,8.10
2015,08,31,21,41,6.40
2015,08,31,21,42,6.40
2015,08,31,21,43,1.60
2015,08,31,21,44,1.60
2015,08,31,21,45,3.20
2015,08,31,21,46,3.20
2015,08,31,21,47,4.80
2015,08,31,21,48,4.80
2015,08,31,21,49,4.80
2015,08,31,21,50,4.80
2015,08,31,21,51,3.20
2015,08,31,21,52,6.40
2015,08,31,21,53,4.80
2015,08,31,21,54,4.80
2015,08,31,21,55,3.20
2015,08,31,21,58,1.60
2015,08,31,21,59,4.80
2015,08,31,22,00,1.60
2015,08,31,22,01,1.60
2015,08,31,22,02,1.60
2015,08,31,22,03,3.20
2015,08,31,22,04,3.20
2015,08,31,22,05,1.60
2015,08,31,22,06,4.80
2015,08,31,22,07,6.40
2015,08,31,22,08,3.20
2015,08,31,22,09,4.80
2015,08,31,22,10,6.40
2015,08,31,22,11,8.10
2015,08,31,22,12,4.80
2015,08,31,22,13,8.10
2015,08,31,22,14,4.80
2015,08,31,22,15,4.80
2015,08,31,22,16,4.80
2015,08,31,22,17,6.40
2015,08,31,22,18,4.80
2015,08,31,22,19,4.80
2015,08,31,22,20,6.40
2015,08,31,22,21,4.80
2015,08,31,22,23,3.20
2015,08,31,22,24,6.40
2015,08,31,22,25,6.40
2015,08,31,22,26,4.80
2015,08,31,22,27,4.80
2015,08,31,22,28,3.20
2015,08,31,22,29,3.20
2015,08,31,22,30,4.80
2015,08,31,22,31,4.80
2015,08,31,22,32,8.10
2015,08,31,22,33,6.40
2015,08,31,22,34,6.40
2015,08,31,22,35,4.80
2015,08,31,22,36,3.20
2015,08,31,22,37,3.20
2015,08,31,22,38,1.60
2015,08,31,22,39,1.60
2015,08,31,22,40,3.20
2015,08,31,22,41,3.20
2015,08,31,22,42,4.80
2015,08,31,22,44,4.80
2015,08,31,22,45,1.60
2015,08,31,22,46,3.20
2015,08,31,22,47,1.60
2015,08,31,22,48,1.60
2015,08,31,22,51,4.80
2015,08,31,22,52,3.20
2015,08,31,22,54,6.40
2015,08,31,22,55,4.80
2015,08,31,22,56,1.60
2015,08,31,22,58,1.60
2015,08,31,23,01,1.60
2015,08,31,23,02,6.40
2015,08,31,23,03,6.40
2015,08,31,23,05,4.80
2015,08,31,23,06,6.40
2015,08,31,23,07,4.80
2015,08,31,23,08,4.80
2015,08,31,23,09,3.20
2015,08,31,23,10,1.60
2015,08,31,23,11,1.60
2015,08,31,23,12,1.60
2015,08,31,23,13,1.60
2015,08,31,23,14,1.60
2015,08,31,23,15,4.80
2015,08,31,23,16,4.80
2015,08,31,23,17,4.80
2015,08,31,23,25,1.60
2015,08,31,23,26,1.60
2015,08,31,23,33,1.60
2015,08,31,23,34,4.80
2015,08,31,23,35,4.80
2015,08,31,23,36,3.20
2015,08,31,23,37,1.60
2015,08,31,23,38,3.20
2015,08,31,23,39,1.60
2015,08,31,23,40,1.60
2015,08,31,23,41,4.80
2015,08,31,23,42,6.40
2015,08,31,23,43,8.10
2015,08,31,23,44,6.40
2015,08,31,23,45,4.80
2015,08,31,23,46,4.80
2015,08,31,23,47,3.20
2015,08,31,23,48,3.20
2015,08,31,23,49,3.20
2015,08,31,23,50,4.80
2015,08,31,23,51,4.80
2015,08,31,23,52,4.80
2015,08,31,23,53,6.40
2015,08,31,23,54,4.80
2015,08,31,23,55,4.80
2015,08,31,23,56,4.80
2015,08,31,23,57,4.80
2015,08,31,23,58,8.10
2015,08,31,23,59,6.40
